Location: *
(45.3299°S, 178.0468°W)
Time: 05:24:47
(UTC+00:00)

Daily predictions for brighter satellites

Satellite Brightness Start Highest point End
(mag) Time Altitude Azimuth Time Altitude Azimuth Time Altitude Azimuth
Meteor 1-26 Rocket 4.4 04:41:58 10° SSW 04:47:47 87° W 04:53:21 10° N
STARLINK-1273 4.1 04:46:05 10° NW 04:50:10 53° NE 04:54:18 10° ESE
Cosmos 2123 Rocket 4.1 04:44:27 10° S 04:50:37 55° ESE 04:56:44 10° NNE
STARLINK-1320 4.4 04:49:19 10° SW 04:51:57 23° S 04:54:35 10° ESE
STARLINK-80 4.0 04:48:24 10° WNW 04:52:10 50° SSW 04:55:57 10° SE
STARLINK-1322 4.4 04:49:38 10° SW 04:52:17 23° S 04:54:54 10° ESE
STARLINK-1324 4.4 04:49:59 10° SW 04:52:38 23° S 04:55:15 10° ESE
STARLINK-1294 4.4 04:50:22 10° SW 04:52:58 22° S 04:55:34 10° ESE
STARLINK-1261 4.4 04:50:39 10° SW 04:53:18 23° S 04:55:56 10° ESE
Cosmos 1538 Rocket 4.1 04:48:19 10° NNW 04:53:33 89° ENE 04:58:50 10° SSE
Cosmos 1812 4.0 04:50:35 10° SSE 04:53:36 21° ESE 04:56:34 10° ENE
STARLINK-1325 4.4 04:50:59 10° SW 04:53:38 23° S 04:56:15 10° ESE
STARLINK-1333 4.4 04:51:22 10° SW 04:54:00 23° S 04:56:39 10° ESE
COSMOS 2428 3.2 04:48:53 10° N 04:54:15 42° ENE 04:59:40 10° SE
STARLINK-1334 4.4 04:51:41 10° SW 04:54:20 23° S 04:56:58 10° ESE
STARLINK-1326 4.4 04:52:02 10° SW 04:54:41 23° S 04:57:19 10° ESE
USA 234 3.5 04:48:17 10° SE 04:54:54 77° SW 05:01:30 10° WNW
STARLINK-1323 4.4 04:52:20 10° SW 04:54:59 23° S 04:57:38 10° ESE
STARLINK-1288 3.9 04:50:59 10° NW 04:55:07 58° NE 04:59:16 10° ESE
Cosmos 1461 4.1 04:51:58 10° SSW 04:55:09 21° SE 04:58:13 10° E
STARLINK-1349 4.4 04:52:43 10° SW 04:55:22 23° S 04:58:01 10° ESE
STARLINK-1336 4.4 04:53:02 10° SW 04:55:41 23° S 04:58:20 10° ESE
STARLINK-1331 4.4 04:53:25 10° SW 04:56:04 23° S 04:58:43 10° ESE
STARLINK-1344 4.4 04:53:46 10° SW 04:56:25 23° SSE 04:59:04 10° ESE
STARLINK-1343 4.4 04:54:02 10° SW 04:56:42 23° S 04:59:21 10° ESE
STARLINK-1346 4.4 04:54:28 10° SW 04:57:05 23° SSE 04:59:42 10° ESE
STARLINK-1328 4.4 04:54:43 10° SW 04:57:24 23° SSE 05:00:03 10° ESE
STARLINK-1354 4.4 04:55:03 10° SW 04:57:43 23° SSE 05:00:22 10° ESE
ADEOS Rocket 3.7 04:50:15 10° NNE 04:57:51 83° ESE 05:05:46 10° SSW
STARLINK-1347 4.4 04:55:25 10° SW 04:58:04 23° SSE 05:00:45 10° ESE
STARLINK-1357 4.4 04:55:45 10° SW 04:58:25 23° SSE 05:01:04 10° ESE
STARLINK-1335 4.4 04:56:09 10° SW 04:58:49 23° SSE 05:01:28 10° ESE
STARLINK-1327 4.4 04:56:25 10° SW 04:59:05 23° SSE 05:01:45 10° ESE
STARLINK-1340 4.4 04:56:45 10° SW 04:59:26 23° SSE 05:02:06 10° ESE
STARLINK-1356 4.4 04:57:06 10° SW 04:59:46 24° SSE 05:02:26 10° ESE
ATLAS 5 CENTAUR R/B 4.0 04:54:49 10° NNE 04:59:48 20° ENE 05:04:35 10° ESE
STARLINK-1345 4.4 04:57:26 10° SW 05:00:07 24° SSE 05:02:47 10° ESE
STARLINK-1308 3.8 04:55:58 10° NW 05:00:07 64° NE 05:04:18 10° ESE
Cosmos 1515 Rocket 4.2 04:55:48 10° SSW 05:00:16 65° W 05:04:42 10° N
STARLINK-1355 4.4 04:57:46 10° SW 05:00:27 24° SSE 05:03:06 10° ESE
STARLINK-1321 4.3 04:58:08 10° SW 05:00:48 24° SSE 05:03:27 10° ESE
STARLINK-1283 4.2 04:57:18 10° W 05:01:01 44° SSW 05:04:45 10° SE
STARLINK-1358 4.3 04:58:27 10° SW 05:01:08 24° SSE 05:03:45 10° ESE
STARLINK-1332 4.3 04:58:51 10° SW 05:01:32 24° SSE 05:04:08 10° ESE
STARLINK-1348 4.3 04:59:09 10° SW 05:01:50 24° SSE 05:04:25 11° ESE
STARLINK-1330 4.3 04:59:27 10° SW 05:02:09 24° SSE 05:04:43 11° ESE
STARLINK-1311 3.9 04:59:25 10° W 05:02:16 35° SSW 05:05:08 10° SE
STARLINK-60 2.9 04:59:10 10° SW 05:02:27 79° SSE 05:05:43 10° ENE
Meteor 1-31 Rocket 3.5 04:58:32 10° S 05:02:30 59° WSW 05:06:25 10° NNW
STARLINK-1363 4.3 04:59:51 10° SW 05:02:33 24° SSE 05:05:07 11° ESE
STARLINK-1337 4.3 05:00:08 10° SW 05:02:50 24° SSE 05:05:23 11° ESE
STARLINK-1342 4.3 05:00:28 10° SW 05:03:11 24° SSE 05:05:42 11° ESE
STARLINK-1364 4.3 05:00:48 10° SW 05:03:30 24° SSE 05:06:01 11° ESE
STARLINK-1376 4.3 05:01:10 10° SW 05:03:52 24° SSE 05:06:22 11° ESE
STARLINK-1360 4.3 05:01:30 10° SW 05:04:11 24° SSE 05:06:40 11° ESE
STARLINK-1361 4.3 05:01:49 10° SW 05:04:31 24° SSE 05:06:59 11° ESE
STARLINK-1367 4.3 05:02:11 10° SW 05:04:51 24° SSE 05:07:16 11° ESE
STARLINK-1366 4.3 05:02:33 10° SW 05:05:16 24° SSE 05:07:42 12° ESE
COSMO-SKYMED 1 2.6 05:01:07 10° NNE 05:05:31 89° ESE 05:09:59 10° SSW
Cosmos 1821 Rocket 4.3 04:59:39 10° NNW 05:05:47 74° W 05:12:03 10° S
Cosmos 2237 Rocket 3.5 05:02:42 10° NNE 05:06:50 21° E 05:11:00 10° SE
STARLINK-61 3.9 05:03:01 10° NW 05:06:51 50° NE 05:10:27 12° ESE
STARLINK-1372 4.5 05:03:44 10° SW 05:06:58 28° SSE 05:09:53 12° ESE
CZ-4B R/B 4.1 05:02:39 10° SE 05:07:22 29° E 05:12:07 10° NNE
STARLINK-1316 3.9 05:05:24 10° W 05:08:24 37° SSW 05:11:15 11° SE
STARLINK-42 4.3 05:05:26 10° W 05:08:24 31° SSW 05:11:15 11° SE
Cosmos 1707 Rocket 4.3 05:04:57 10° S 05:08:58 31° ESE 05:12:54 10° NE
Iridium 96 3.0 05:07:38 10° S 05:09:20 40° E 05:10:59 10° NNE
STARLINK-1257 4.0 05:06:20 10° W 05:09:20 36° SSW 05:12:08 11° SE
SL-16 R/B 4.0 05:04:37 10° WNW 05:09:26 27° SW 05:14:17 10° S
STARLINK-1304 3.7 05:05:51 10° NW 05:10:02 74° NE 05:13:54 12° ESE
Cosmos 1633 2.7 05:06:25 10° NNW 05:10:04 79° W 05:13:45 10° S
STARLINK-1378 4.5 05:06:46 10° SW 05:10:04 28° SSE 05:12:53 13° ESE
STARLINK-1256 4.0 05:07:13 10° W 05:10:13 36° SSW 05:13:00 12° SE
STARLINK-1213 4.0 05:08:09 10° W 05:11:08 35° SSW 05:13:52 12° SE
STARLINK-1263 4.0 05:09:03 10° W 05:12:02 35° SSW 05:14:44 12° SE
STARLINK-1286 3.7 05:08:06 10° NW 05:12:19 79° NNE 05:16:08 13° ESE
STARLINK-1329 4.4 05:09:04 10° SW 05:12:20 29° SSE 05:15:02 13° ESE
STARLINK-1379 4.4 05:09:20 10° SW 05:12:36 28° SSE 05:15:17 13° ESE
STARLINK-1259 4.0 05:09:58 10° W 05:12:56 35° SSW 05:15:35 12° SE
STARLINK-1265 4.0 05:10:30 10° W 05:13:27 34° SSW 05:16:03 12° SE
STARLINK-1285 4.0 05:10:52 10° W 05:13:50 34° SSW 05:16:27 12° SE
Cosmos 2228 Rocket 3.3 05:09:25 10° S 05:14:02 83° W 05:18:32 10° N
STARLINK-1268 4.1 05:11:31 10° W 05:14:28 34° SSW 05:17:02 13° SE
STARLINK-1362 4.4 05:12:14 10° SW 05:15:35 29° SSE 05:18:12 14° ESE
STARLINK-1296 4.1 05:12:43 10° W 05:15:41 34° SSW 05:18:13 13° SE
STARLINK-1365 4.4 05:12:27 10° SW 05:15:50 30° SSE 05:18:25 14° ESE
STARLINK-1260 4.1 05:13:37 10° W 05:16:34 33° SSW 05:19:04 13° SE
STARLINK-1318 4.1 05:14:34 10° W 05:17:30 33° SSW 05:19:57 13° SE
Cosmos 1371 Rocket 4.5 05:13:13 10° S 05:18:21 40° ESE 05:23:24 10° NE
STARLINK-1275 4.1 05:15:25 10° W 05:18:21 33° SSW 05:20:46 13° SE
STARLINK-1373 4.4 05:15:02 10° SW 05:18:23 30° SSE 05:20:50 15° ESE
USA 116 4.4 05:13:57 10° NNE 05:18:44 63° ESE 05:23:58 10° S
STARLINK-1309 4.1 05:16:19 10° W 05:19:15 32° SSW 05:21:39 14° SE
STARLINK-1282 4.2 05:17:15 10° W 05:20:11 32° SSW 05:22:32 14° SE
Cosmos 1934 Rocket 4.1 05:14:00 10° N 05:20:22 89° E 05:26:52 10° S
STARLINK-1390 4.4 05:17:43 10° SW 05:21:04 30° SSE 05:23:23 16° ESE
STARLINK-1313 4.3 05:18:23 10° W 05:21:16 30° SSW 05:23:32 14° SE
STARLINK-62 3.9 05:18:27 10° W 05:21:32 39° SSW 05:23:57 15° SE
STARLINK-1279 4.3 05:19:22 10° W 05:22:14 30° SSW 05:24:28 14° SE
STARLINK-1298 4.2 05:19:58 10° W 05:22:53 31° SSW 05:25:07 15° SE
STARLINK-1029 3.6 05:19:48 10° W 05:22:55 46° SSW 05:25:14 16° SE
STARLINK-34 4.0 05:20:25 10° W 05:23:29 38° SSW 05:25:50 15° SE
STARLINK-1293 4.2 05:20:55 10° W 05:23:50 31° SSW 05:26:02 15° SE
Cosmos 158 Rocket 4.3 05:19:27 10° N 05:24:25 49° ENE 05:29:34 10° SSE
STARLINK-1301 4.4 05:21:36 10° W 05:24:52 33° SSW 05:27:22 15° SE
STARLINK-1255 4.2 05:22:44 10° W 05:25:38 30° SSW 05:27:44 15° SE
STARLINK-1299 3.8 05:21:56 10° WNW 05:26:15 76° SSW 05:29:38 16° SE
Cosmos 1743 Rocket 4.5 05:22:07 10° NNW 05:26:25 51° WSW 05:30:49 10° S
STARLINK-1306 3.7 05:22:27 10° WNW 05:26:44 83° SSW 05:30:00 17° SE
Cosmos 2333 Rocket 2.3 05:20:57 10° NNW 05:26:45 87° ENE 05:32:36 10° SSE
Cosmos 405 2.9 05:23:42 10° S 05:27:17 64° E 05:30:47 10° NNE
Cosmos 2112 Rocket 4.2 05:22:45 10° N 05:27:54 53° ENE 05:33:04 10° SSE
STARLINK-1307 4.3 05:24:56 10° W 05:28:14 34° SSW 05:30:38 16° SE
Okean O Rocket 2.1 05:24:48 10° SSE 05:29:01 39° E 05:33:11 10° NNE
H-2A R/B 3.3 05:25:47 10° SSE 05:29:27 37° E 05:33:05 10° NNE
STARLINK-44 4.5 05:26:13 10° NNW 05:29:40 31° NE 05:31:48 18° E
STARLINK-1281 3.7 05:25:44 10° WNW 05:29:57 84° SSW 05:33:02 18° SE
Meteor 1-10 Rocket 4.2 05:24:25 10° S 05:30:08 78° ESE 05:35:52 10° NNE
FENGYUN 3A 4.4 05:25:01 10° S 05:30:23 57° WSW 05:35:41 10° NNW
Cosmos 2278 Rocket 2.4 05:25:09 10° SSW 05:30:43 49° ESE 05:36:13 10° NE
STARLINK-1290 4.4 05:27:41 10° W 05:30:58 33° SSW 05:33:15 17° SE
Cosmos 1605 Rocket 3.9 05:25:01 10° N 05:31:13 71° E 05:37:24 10° SSE
STARLINK-29 2.9 05:27:59 10° SW 05:31:18 71° SSE 05:33:59 15° ENE
STARLINK-37 4.4 05:27:56 10° NNW 05:31:29 34° NE 05:33:38 20° E
Cosmos 1844 Rocket 4.3 05:26:56 10° SW 05:32:12 39° WNW 05:37:26 10° N
STARLINK-36 4.4 05:29:25 10° NNW 05:32:55 33° NE 05:34:57 20° E
Sich 1 3.1 05:29:09 10° N 05:33:30 63° E 05:37:57 10° SSE
STARLINK-1297 4.4 05:30:22 10° W 05:33:38 33° SSW 05:35:48 17° SE
STARLINK-68 4.2 05:31:09 10° NNW 05:34:45 37° NE 05:36:47 21° E
STARLINK-1310 3.7 05:30:44 10° WNW 05:34:56 78° SSW 05:37:49 20° SE
STARLINK-63 4.2 05:32:45 10° NNW 05:36:21 37° NE 05:38:18 22° E
SMAP 3.8 05:32:36 11° SSE 05:36:40 31° E 05:40:50 10° NNE
STARLINK-35 4.3 05:34:16 10° NNW 05:37:50 36° NE 05:39:43 22° E
STARLINK-51 4.2 05:35:56 10° NNW 05:39:33 38° NE 05:41:22 23° E
STARLINK-1319 3.7 05:35:43 10° WNW 05:39:55 73° SSW 05:42:36 22° SE
Cosmos 2322 4.4 05:35:11 10° NW 05:40:45 54° WSW 05:46:23 10° SSE
Cosmos 1346 Rocket 3.4 05:37:01 10° NNW 05:40:56 58° WSW 05:44:55 10° S
STARLINK-30 4.2 05:37:32 10° NNW 05:41:10 39° NE 05:42:55 24° E
PSLV R/B 4.4 05:37:16 10° S 05:41:26 64° WSW 05:45:30 10° NNW
STARLINK-48 4.2 05:37:42 10° W 05:41:31 45° SSW 05:43:52 21° SE
STARLINK-72 4.1 05:39:13 10° NNW 05:42:52 40° NE 05:44:35 25° E
Cosmos 2360 Rocket 3.8 05:38:58 10° WNW 05:44:00 31° SW 05:49:04 10° S
STARLINK-1277 3.8 05:40:42 10° WNW 05:44:53 68° SSW 05:47:22 24° SE
STARLINK-59 3.9 05:42:28 10° NNW 05:46:11 44° NE 05:47:48 28° E
Cosmos 2056 Rocket 3.6 05:41:34 10° SSW 05:46:55 58° ESE 05:52:06 10° NE
STARLINK-1021 4.4 05:43:27 10° NNW 05:47:19 37° NE 05:48:58 26° E
STARLINK-56 4.0 05:44:03 10° NNW 05:47:45 44° NE 05:49:17 29° E
ATLAS 2AS CENTAUR R/B 3.6 05:43:12 10° SSW 05:48:35 26° SSE 05:51:06 21° ESE
STARLINK-73 3.9 05:45:40 10° NNW 05:49:23 45° NE 05:50:52 30° E
STARLINK-1276 3.9 05:45:43 10° WNW 05:49:53 64° SSW 05:52:09 26° SE
STARLINK-38 3.9 05:47:18 10° NW 05:51:02 47° NE 05:52:27 31° E
SL-24 R/B 4.4 05:46:39 10° N 05:51:43 87° W 05:56:39 10° S
STARLINK-1019 4.3 05:48:21 10° NNW 05:52:17 40° NE 05:53:46 29° E
NOAA 6 4.0 05:47:05 10° SSE 05:52:18 86° ENE 05:57:28 10° NNW
STARLINK-24 3.8 05:48:37 10° NW 05:52:35 52° NE 05:54:10 32° E
STARLINK-65 3.8 05:48:56 10° NW 05:52:41 48° NE 05:54:03 32° E
CZ-2C R/B 3.7 05:53:39 24° ESE 05:53:41 24° ESE 05:57:57 10° S
STARLINK-53 3.7 05:50:48 10° NW 05:54:36 52° NE 05:55:58 34° E
SJ-7 4.4 05:50:35 10° SSE 05:54:40 85° WSW 05:58:42 10° NNW
STARLINK-1305 4.0 05:50:43 10° WNW 05:54:53 60° SSW 05:56:57 28° SE
STARLINK-25 3.7 05:52:24 10° NW 05:56:02 49° NE 05:57:08 36° E
STARLINK-1012 4.2 05:53:15 10° NNW 05:57:14 43° NE 05:58:32 33° E
STARLINK-64 4.1 05:54:05 10° W 05:57:31 40° SSW 05:58:52 28° SSE
Cosmos 1818 3.6 05:52:23 10° NNW 05:57:41 58° ENE 06:00:42 25° SE
STARLINK-1278 4.2 05:54:29 10° WNW 05:58:42 52° SSW 06:00:43 28° SE
STARLINK-1262 4.0 05:55:44 10° WNW 05:59:53 57° SSW 06:01:44 30° SE
Cosmos 1666 Rocket 3.4 05:55:35 10° N 06:00:00 82° E 06:04:25 10° S
STARLINK-1280 4.2 05:56:20 10° W 06:00:33 51° SSW 06:02:29 29° SE
Shenzhou-11 Module 2.3 05:58:41 10° WNW 06:01:10 42° N 06:01:12 42° N
H-2A R/B 4.4 05:58:18 10° S 06:01:54 28° WSW 06:05:23 10° NW
Cosmos 1633 Rocket 3.0 05:57:41 10° N 06:02:06 71° E 06:06:32 10° SSE
YAOGAN 6 3.0 06:03:03 40° E 06:03:09 40° E 06:06:39 10° N
ALOS 4.4 05:59:29 10° S 06:03:22 25° WSW 06:07:12 10° WNW
BREEZE-M DEB (TANK) 3.9 05:59:35 10° WSW 06:03:34 76° NNW 06:19:09 10° NE
STARLINK-1300 4.1 06:00:43 10° WNW 06:04:51 54° SSW 06:06:29 32° SE
Centaur D AC-29 4.0 05:59:02 10° NW 06:05:15 16° NNW 06:08:34 10° NNE
STARLINK-1026 3.9 06:03:05 10° NW 06:07:09 52° NE 06:08:07 42° E
Cosmos 2219 Rocket 3.0 06:01:45 10° NW 06:07:18 51° WSW 06:12:55 10° SSE
STARLINK-52 3.3 06:04:11 10° WSW 06:07:28 66° NW 06:08:30 38° NNE
Cosmos 2100 Rocket 4.0 06:01:56 10° NNE 06:07:59 56° E 06:14:03 10° SSE
STARLINK-50 3.6 06:04:40 10° NW 06:08:42 65° NE 06:09:41 47° E
Cosmos 1680 Rocket 4.0 06:03:27 10° NNW 06:08:43 62° WSW 06:13:59 10° SSE
STARLINK-1295 4.2 06:05:46 10° W 06:09:53 51° SSW 06:11:18 35° SSE
STARLINK-1338 3.5 06:06:24 10° SW 06:09:59 48° SSE 06:10:05 47° SSE
STARLINK-1013 3.8 06:07:58 10° NW 06:12:05 56° NE 06:12:52 47° E
FALCON 9 DEB 3.1 06:08:46 10° WSW 06:12:19 89° NNW 06:12:55 60° NE
STARLINK-1287 4.3 06:10:46 10° W 06:14:51 48° SSW 06:16:03 36° SSE
STARLINK-1371 3.5 06:11:51 10° SW 06:15:21 51° SSE 06:15:21 51° SSE
STARLINK-1009 3.7 06:12:55 10° NW 06:17:02 61° NE 06:17:39 54° ENE
Cosmos 1452 Rocket 3.9 06:12:17 10° S 06:17:17 40° ESE 06:17:29 40° ESE
STARLINK-1341 3.5 06:14:35 10° SW 06:18:02 53° SSE 06:18:02 53° SSE
SL-4 R/B 4.1 06:16:41 10° W 06:19:46 24° NW 06:23:02 10° NNE
Cosmos 1420 Rocket 4.0 06:15:25 10° SSW 06:20:46 60° ESE 06:24:07 22° NE
STARLINK-1374 3.6 06:17:10 10° SW 06:20:30 53° S 06:20:30 53° S
STARLINK-1015 3.6 06:17:52 10° NW 06:22:01 66° NE 06:22:26 61° ENE
Cosmos 1980 3.6 06:16:32 10° NNW 06:22:14 87° ENE 06:25:38 26° SSE
CZ-4C R/B 4.3 06:19:04 10° SW 06:22:40 15° S 06:24:38 13° SSE
STARLINK-1339 3.6 06:19:53 10° SW 06:23:09 53° S 06:23:09 53° S
Cosmos 2061 Rocket 4.1 06:18:48 10° NNE 06:24:48 48° E 06:28:12 25° SSE
STARLINK-1302 4.4 06:20:49 10° W 06:24:52 44° SSW 06:25:38 39° S
Cosmos 1238 Rocket 3.1 06:20:36 10° NNW 06:25:08 71° W 06:27:18 25° S
STARLINK-1377 3.7 06:22:05 10° SW 06:25:11 52° SSW 06:25:11 52° SSW
Envisat 2.9 06:21:19 14° SSE 06:25:54 84° ENE 06:31:02 10° NNW
STARLINK-1016 3.5 06:22:49 10° NW 06:26:59 72° NE 06:27:13 69° ENE
STARLINK-1320 4.1 06:25:01 10° SW 06:27:09 38° SW 06:27:09 38° SW
STARLINK-1353 3.8 06:24:46 10° SW 06:27:46 51° SSW 06:27:46 51° SSW
STARLINK-1322 4.1 06:25:20 10° SW 06:27:28 37° SW 06:27:28 37° SW
STARLINK-1324 4.1 06:25:41 10° SW 06:27:48 37° SW 06:27:48 37° SW
STARLINK-1294 4.2 06:26:02 10° SW 06:28:05 35° SW 06:28:05 35° SW
STARLINK-1261 4.1 06:26:21 10° SW 06:28:27 37° SW 06:28:27 37° SW
Meteor 1-20 Rocket 4.2 06:24:02 10° N 06:29:41 60° E 06:32:29 30° SSE
STARLINK-1325 4.2 06:26:40 10° SW 06:28:45 36° SW 06:28:45 36° SW
Feng Yun 1-1 Rocket 4.2 06:27:58 38° SE 06:29:52 58° ENE 06:35:15 10° N
STARLINK-1273 4.4 06:25:52 10° W 06:29:53 42° SSW 06:30:25 40° S
STARLINK-1333 4.2 06:27:03 10° SW 06:29:07 36° SW 06:29:07 36° SW
STARLINK-1334 4.2 06:27:22 10° SW 06:29:26 36° SW 06:29:26 36° SW
USA 40 PKM 4.3 06:26:14 10° NW 06:30:43 71° SW 06:31:05 64° S
Cosmos 2297 4.0 06:25:20 10° SSW 06:30:33 44° SE 06:30:33 44° SE
STARLINK-1326 4.2 06:27:43 10° SW 06:29:45 35° SW 06:29:45 35° SW
NOSS 0 Rocket 4.1 06:24:46 10° NW 06:31:01 73° WSW 06:35:22 21° SSE
STARLINK-1323 4.3 06:28:02 10° SW 06:30:04 35° SW 06:30:04 35° SW
STARLINK-1375 3.8 06:27:54 10° SW 06:30:53 50° SSW 06:30:53 50° SSW
STARLINK-1349 4.3 06:28:24 10° SW 06:30:25 35° SW 06:30:25 35° SW
STARLINK-1336 4.3 06:28:43 10° SW 06:30:43 35° SW 06:30:43 35° SW
STARLINK-1008 3.5 06:27:46 10° NW 06:31:58 78° NE 06:32:01 77° NE
STARLINK-1331 4.3 06:29:06 10° SW 06:31:05 34° SW 06:31:05 34° SW
STARLINK-1344 4.3 06:29:26 10° SW 06:31:25 34° SW 06:31:25 34° SW
STARLINK-1343 4.3 06:29:43 10° SW 06:31:42 34° SW 06:31:42 34° SW
Helios 1A Rocket 2.8 06:33:10 78° NE 06:33:10 78° NE 06:37:07 10° N
STARLINK-1346 4.4 06:30:08 10° SW 06:32:01 32° SW 06:32:01 32° SW
STARLINK-1328 4.4 06:30:24 10° SW 06:32:21 33° SW 06:32:21 33° SW
STARLINK-81 3.4 06:29:50 10° WNW 06:33:34 81° WNW 06:33:34 81° WNW
STARLINK-1350 4.0 06:30:10 10° SW 06:32:59 47° SSW 06:32:59 47° SSW
STARLINK-1354 4.4 06:30:43 10° SW 06:32:40 33° SW 06:32:40 33° SW
STARLINK-1347 4.4 06:31:05 10° SW 06:33:01 33° SW 06:33:01 33° SW
Cosmos 1461 3.6 06:30:37 10° SW 06:34:28 48° WNW 06:36:32 23° N
STARLINK-1357 4.4 06:31:25 10° SW 06:33:20 33° SW 06:33:20 33° SW
STARLINK-1288 4.5 06:30:52 10° W 06:34:51 40° SSW 06:35:11 39° S
STARLINK-1335 4.5 06:31:49 10° SW 06:33:42 32° SW 06:33:42 32° SW
Cosmos 2016 Rocket 4.0 06:29:09 10° N 06:35:17 58° E 06:39:15 23° SSE
STARLINK-1327 4.5 06:32:05 10° SW 06:33:58 32° SW 06:33:58 32° SW
STARLINK-54 3.5 06:31:28 10° WNW 06:35:11 76° WSW 06:35:11 76° WSW
STARLINK-1340 4.5 06:32:25 10° SW 06:34:18 32° SW 06:34:18 32° SW
STARLINK-1352 4.1 06:32:54 10° SW 06:35:37 45° SW 06:35:37 45° SW
STARLINK-77 3.5 06:32:54 10° WNW 06:36:31 75° W 06:36:31 75° W
STARLINK-1014 3.6 06:32:44 10° NW 06:36:51 81° N 06:36:51 81° N
Cosmos 2173 Rocket 3.9 06:30:49 10° N 06:37:07 85° E 06:43:24 10° S
USA 234 4.2 06:34:22 25° SSE 06:37:23 38° SSW 06:43:22 10° W
COSMOS 2428 4.1 06:33:22 10° WNW 06:38:37 35° SW 06:43:21 12° S
STARLINK-1368 4.2 06:35:40 10° SW 06:38:17 43° SW 06:38:17 43° SW
STARLINK-1010 3.6 06:36:15 10° WNW 06:40:25 83° WNW 06:40:25 83° WNW
Lacrosse 5 rocket 2.4 06:37:14 10° NNW 06:40:18 38° N 06:40:18 38° N
STARLINK-79 3.8 06:37:48 10° WNW 06:41:14 65° W 06:41:14 65° W
DMSP B5D2-2 4.2 06:42:44 53° SSE 06:42:44 53° SSE 06:47:08 10° S
STARLINK-1025 3.7 06:37:44 10° NW 06:41:36 75° NW 06:41:36 75° NW
STARLINK-1369 4.3 06:38:26 10° SW 06:40:57 41° SW 06:40:57 41° SW
STARLINK-78 3.9 06:39:26 10° WNW 06:42:46 61° W 06:42:46 61° W
ATLAS 5 CENTAUR R/B 2.6 06:36:45 10° NW 06:43:59 87° NE 06:46:25 44° SE
Cosmos 1459 Rocket 4.0 06:38:01 10° N 06:44:16 86° W 06:50:42 10° S
STARLINK-1372 4.5 06:41:14 10° WSW 06:43:39 38° SW 06:43:39 38° SW
STARLINK-57 4.0 06:41:11 10° WNW 06:44:29 58° W 06:44:29 58° W
STARLINK-49 4.1 06:42:44 10° WNW 06:45:57 56° W 06:45:57 56° W
STARLINK-1017 3.9 06:42:40 10° WNW 06:46:20 67° WNW 06:46:20 67° WNW
CZ-4B R/B 4.2 06:42:53 10° S 06:48:04 44° WSW 06:53:17 10° NW
STARLINK-27 4.2 06:44:19 10° WNW 06:47:26 53° W 06:47:26 53° W
Cosmos 371 Rocket 3.8 06:43:59 10° SSW 06:47:37 48° S 06:47:37 48° S
SL-24 R/B - RUBIN 2 3.8 06:43:53 10° NNW 06:48:23 66° N 06:48:23 66° N
Cosmos 1470 Rocket 3.9 06:44:43 10° NNW 06:49:14 67° W 06:50:24 47° SSW
STARLINK-74 4.2 06:45:59 10° WNW 06:49:02 50° W 06:49:02 50° W
Cosmos 2237 Rocket 2.5 06:44:45 10° NW 06:50:23 63° WSW 06:52:55 33° S
STARLINK-39 4.3 06:47:35 10° WNW 06:50:34 48° W 06:50:34 48° W
CORIOLIS 4.3 06:47:23 18° S 06:51:30 72° WSW 06:56:55 10° NNW
Cosmos 1943 Rocket 3.8 06:46:50 10° S 06:48:59 20° S 06:48:59 20° S
STARLINK-1023 4.1 06:47:40 10° WNW 06:51:07 59° WNW 06:51:07 59° WNW
STARLINK-31 4.4 06:49:14 10° WNW 06:52:08 46° W 06:52:08 46° W
Cosmos 2369 Rocket 4.0 06:48:45 10° S 06:50:30 17° S 06:50:30 17° S
NOAA 12 4.4 06:53:40 25° S 06:56:47 67° WSW 07:02:01 10° NNW
STARLINK-1007 4.4 06:52:40 10° WNW 06:55:56 52° W 06:55:56 52° W
ATLAS CENTAUR R/B 3.9 06:53:42 10° SSW 06:54:47 15° S 06:54:47 15° S
BREEZE-M DEB (TANK) 4.3 06:43:38 10° NW 06:59:02 58° NNE 06:59:38 56° NE
Okean O Rocket 3.8 07:01:35 10° SSW 07:05:09 24° WSW 07:08:42 10° WNW
SL-16 R/B 2.7 07:00:16 10° NNW 07:04:24 48° N 07:04:24 48° N
IRS-1C Rocket 4.3 07:09:07 60° SSW 07:09:51 68° WSW 07:15:06 10° NNW
Cosmos 1802 Rocket 4.3 07:04:35 10° NNW 07:11:01 68° W 07:17:31 10° S
Cosmos 2333 Rocket 4.4 07:07:39 10° W 07:11:48 20° SW 07:15:33 12° S
BREEZE M DEB (TANK) 3.9 06:49:04 10° WSW 07:12:06 84° SSE 07:13:12 67° E
Cosmos 1725 Rocket 3.9 07:07:15 10° N 07:13:34 89° E 07:13:47 84° SSE
NOSS 3-4 (A) 3.8 07:06:51 10° SW 07:13:17 59° SSE 07:13:17 59° SSE
NOSS 3-4 (C) 3.8 07:06:57 10° SW 07:13:20 58° SSE 07:13:20 58° SSE
Cosmos 2278 Rocket 4.1 07:09:45 10° SW 07:14:30 28° WNW 07:19:14 10° NNW
Cosmos 967 Rocket 4.4 07:09:20 10° NW 07:15:37 83° SW 07:15:39 83° SW
Cosmos 2346 Rocket 4.5 07:09:48 10° SSW 07:15:57 75° W 07:22:01 10° N
CZ-2C R/B 3.7 07:35:10 41° SW 07:35:10 41° SW 07:38:58 10° SSW
Tsikada Rocket 4.4 07:28:18 10° SSW 07:33:32 58° SW 07:33:32 58° SW
ATLAS 2AS CENTAUR R/B 3.1 07:33:41 10° SW 07:38:35 54° SSW 07:38:35 54° SSW
ATLAS 5 CENTAUR R/B 4.3 08:23:28 10° W 08:27:59 27° WSW 08:27:59 27° WSW
